| time (UTC) | temp F | wind direction | speed MPH | gust MPH | rain 1hr in | rain 24hr in | rain mn in | humidity % | barometer mb |
| 20260904161611 | 75 | 288 | 2.0 | 12.0 | 0.00 | 0.14 | 0.14 | 60 | 1012.9 |
| 20260904160107 | 75 | 308 | 2.0 | 14.0 | 0.00 | 0.14 | 0.14 | 60 | 1013.1 |
| 20260904154605 | 75 | 311 | 4.0 | 14.0 | 0.00 | 0.14 | 0.14 | 60 | 1013.1 |
| 20260904153115 | 75 | 319 | 4.0 | 12.0 | 0.00 | 0.14 | 0.14 | 63 | 1013.2 |
| 20260904151559 | 75 | 338 | 3.0 | 9.0 | 0.00 | 0.14 | 0.14 | 61 | 1013.4 |
| 20260904150104 | 75 | 218 | 0.0 | 4.0 | 0.00 | 0.14 | 0.14 | 64 | 1013.2 |
| 20260904144615 | 74 | 295 | 1.0 | 6.0 | 0.00 | 0.14 | 0.14 | 64 | 1013.4 |
| 20260904143123 | 73 | 300 | 3.0 | 15.0 | 0.00 | 0.14 | 0.14 | 65 | 1013.4 |
| 20260904141604 | 72 | 283 | 6.0 | 9.0 | 0.00 | 0.14 | 0.14 | 67 | 1013.3 |
| 20260904140105 | 71 | 0 | 0.0 | 12.0 | 0.00 | 0.14 | 0.14 | 67 | 1013.4 |
| 20260904134606 | 72 | 298 | 2.0 | 13.0 | 0.00 | 0.14 | 0.14 | 66 | 1013.3 |
| 20260904133110 | 72 | 56 | 5.0 | 13.0 | 0.00 | 0.14 | 0.14 | 63 | 1013.2 |
| 20260904131605 | 71 | 222 | 1.0 | 5.0 | 0.00 | 0.14 | 0.14 | 100 | 1013.2 |
| 20260904130109 | 69 | 0 | 1.0 | 5.0 | 0.00 | 0.14 | 0.14 | 100 | 1013.3 |
| 20260904124602 | 68 | 222 | 2.0 | 4.0 | 0.00 | 0.14 | 0.14 | 100 | 1013.1 |
| 20260904123101 | 66 | 205 | 1.0 | 4.0 | 0.00 | 0.14 | 0.14 | 100 | 1013.0 |
| 20260904121603 | 65 | 228 | 0.0 | 3.0 | 0.00 | 0.14 | 0.14 | 100 | 1012.8 |
| 20260904120109 | 64 | 238 | 1.0 | 4.0 | 0.00 | 0.14 | 0.14 | 100 | 1012.7 |
| 20260904114608 | 64 | 263 | 0.0 | 4.0 | 0.00 | 0.14 | 0.14 | 100 | 1012.7 |
| 20260904113109 | 63 | 229 | 0.0 | 5.0 | 0.00 | 0.14 | 0.14 | 100 | 1012.5 |
| 20260904111604 | 62 | 0 | 0.0 | 2.0 | 0.00 | 0.14 | 0.14 | 100 | 1012.4 |
| 20260904110101 | 61 | 238 | 0.0 | 3.0 | 0.01 | 0.14 | 0.14 | 100 | 1012.2 |
| 20260904104604 | 59 | 0 | 0.0 | 2.0 | 0.01 | 0.14 | 0.14 | 100 | 1012.3 |
| 20260904103104 | 59 | 0 | 0.0 | 0.0 | 0.01 | 0.14 | 0.14 | 100 | 1012.3 |
| 20260904101607 | 60 | 0 | 0.0 | 0.0 | 0.01 | 0.14 | 0.14 | 100 | 1012.2 |
| 20260904100100 | 60 | 0 | 0.0 | 3.0 | 0.00 | 0.13 | 0.13 | 100 | 1012.1 |
| 20260904094604 | 60 | 0 | 0.0 | 0.0 | 0.00 | 0.13 | 0.13 | 100 | 1012.3 |
| 20260904093110 | 61 | 0 | 0.0 | 0.0 | 0.00 | 0.13 | 0.13 | 100 | 1012.3 |
| 20260904091605 | 61 | 0 | 0.0 | 0.0 | 0.00 | 0.13 | 0.13 | 100 | 1012.3 |
| 20260904084604 | 62 | 0 | 0.0 | 0.0 | 0.00 | 0.15 | 0.13 | 100 | 1012.0 |
| 20260904083106 | 62 | 0 | 0.0 | 0.0 | 0.00 | 0.15 | 0.13 | 100 | 1011.9 |
| 20260904081602 | 62 | 0 | 0.0 | 0.0 | 0.00 | 0.15 | 0.13 | 100 | 1011.7 |
| 20260904080119 | 63 | 0 | 0.0 | 0.0 | 0.00 | 0.15 | 0.13 | 100 | 1011.7 |
| 20260904074558 | 63 | 0 | 0.0 | 1.0 | 0.00 | 0.26 | 0.13 | 100 | 1011.4 |
| 20260904073113 | 63 | 0 | 0.0 | 0.0 | 0.00 | 0.26 | 0.13 | 100 | 1011.7 |
| 20260904071604 | 63 | 0 | 0.0 | 0.0 | 0.02 | 0.26 | 0.13 | 100 | 1011.9 |
| 20260904064558 | 63 | 0 | 0.0 | 1.0 | 0.11 | 0.26 | 0.13 | 100 | 1012.2 |
| 20260904063113 | 63 | 0 | 0.0 | 0.0 | 0.12 | 0.26 | 0.13 | 100 | 1012.4 |
| 20260904061604 | 63 | 0 | 0.0 | 0.0 | 0.11 | 0.24 | 0.11 | 100 | 1012.7 |
| 20260904060104 | 63 | 0 | 0.0 | 0.0 | 0.05 | 0.18 | 0.05 | 100 | 1012.9 |
| 20260904054600 | 63 | 0 | 0.0 | 0.0 | 0.02 | 0.19 | 0.02 | 100 | 1013.2 |
| 20260904053120 | 62 | 0 | 0.0 | 0.0 | 0.01 | 0.18 | 0.01 | 100 | 1012.9 |
| 20260904051604 | 62 | 0 | 0.0 | 0.0 | 0.00 | 0.17 | 0.00 | 100 | 1012.9 |
| 20260904050100 | 62 | 0 | 0.0 | 0.0 | 0.00 | 0.17 | 0.00 | 100 | 1013.0 |
| 20260904044614 | 62 | 0 | 0.0 | 0.0 | 0.00 | 0.29 | 0.00 | 100 | 1013.0 |
| 20260904043109 | 62 | 0 | 0.0 | 0.0 | 0.00 | 0.29 | 0.00 | 100 | 1013.0 |
| 20260904041559 | 63 | 0 | 0.0 | 0.0 | 0.00 | 0.29 | 0.00 | 100 | 1013.1 |
| 20260904040059 | 63 | 0 | 0.0 | 0.0 | 0.00 | 0.29 | 0.00 | 100 | 1013.4 |
| 20260904034605 | 63 | 0 | 0.0 | 0.0 | 0.00 | 0.56 | 0.29 | 100 | 1013.4 |
| 20260904033101 | 63 | 0 | 0.0 | 0.0 | 0.00 | 0.56 | 0.29 | 100 | 1013.3 |
| 20260904031556 | 63 | 0 | 0.0 | 0.0 | 0.00 | 0.56 | 0.29 | 100 | 1013.5 |
| 20260904024604 | 63 | 0 | 0.0 | 0.0 | 0.00 | 0.56 | 0.29 | 100 | 1013.6 |
| 20260904023102 | 64 | 0 | 0.0 | 0.0 | 0.00 | 0.56 | 0.29 | 100 | 1013.7 |
| 20260904021613 | 64 | 0 | 0.0 | 0.0 | 0.00 | 0.56 | 0.29 | 100 | 1014.0 |
| 20260904020058 | 65 | 0 | 0.0 | 0.0 | 0.00 | 0.56 | 0.29 | 100 | 1013.9 |
| 20260904014607 | 65 | 0 | 0.0 | 0.0 | 0.00 | 0.57 | 0.29 | 100 | 1014.1 |
| 20260904013121 | 66 | 0 | 0.0 | 0.0 | 0.00 | 0.57 | 0.29 | 100 | 1014.1 |
| 20260904011647 | 66 | 0 | 0.0 | 0.0 | 0.00 | 0.57 | 0.29 | 100 | 1014.0 |
| 20260904010101 | 67 | 0 | 0.0 | 0.0 | 0.00 | 0.57 | 0.29 | 100 | 1014.0 |
| 20260904004559 | 67 | 0 | 0.0 | 0.0 | 0.00 | 0.58 | 0.29 | 100 | 1014.1 |
| 20260904003105 | 68 | 0 | 0.0 | 0.0 | 0.00 | 0.58 | 0.29 | 100 | 1013.9 |
| 20260904001652 | 69 | 0 | 0.0 | 0.0 | 0.00 | 0.58 | 0.29 | 100 | 1013.8 |
| 20260904000109 | 70 | 0 | 0.0 | 0.0 | 0.00 | 0.58 | 0.29 | 100 | 1013.8 |
| 20260903234558 | 71 | 0 | 0.0 | 1.0 | 0.00 | 0.60 | 0.29 | 100 | 1013.7 |
| 20260903233110 | 72 | 0 | 0.0 | 0.0 | 0.00 | 0.60 | 0.29 | 100 | 1013.3 |
| 20260903231604 | 72 | 0 | 0.0 | 0.0 | 0.00 | 0.60 | 0.29 | 100 | 1013.0 |
| 20260903230111 | 73 | 0 | 0.0 | 0.0 | 0.00 | 0.60 | 0.29 | 100 | 1013.1 |
| 20260903224619 | 74 | 0 | 0.0 | 0.0 | 0.00 | 0.62 | 0.29 | 100 | 1013.2 |
| 20260903223103 | 75 | 0 | 0.0 | 0.0 | 0.00 | 0.62 | 0.29 | 12 | 1013.1 |
| 20260903221604 | 76 | 0 | 0.0 | 0.0 | 0.00 | 0.62 | 0.29 | 27 | 1013.1 |
| 20260903220106 | 77 | 0 | 0.0 | 0.0 | 0.00 | 0.62 | 0.29 | 62 | 1012.8 |
| 20260903214608 | 78 | 0 | 0.0 | 2.0 | 0.00 | 0.63 | 0.29 | 70 | 1013.1 |
| 20260903213102 | 79 | 236 | 0.0 | 11.0 | 0.00 | 0.63 | 0.29 | 69 | 1012.9 |
| 20260903211606 | 79 | 302 | 4.0 | 9.0 | 0.00 | 0.63 | 0.29 | 68 | 1013.0 |
| 20260903210142 | 79 | 0 | 0.0 | 2.0 | 0.00 | 0.63 | 0.29 | 70 | 1012.7 |
| 20260903204607 | 79 | 0 | 0.0 | 5.0 | 0.00 | 0.63 | 0.29 | 69 | 1012.8 |
| 20260903203100 | 80 | 263 | 4.0 | 7.0 | 0.00 | 0.63 | 0.29 | 69 | 1012.7 |
| 20260903201601 | 81 | 222 | 2.0 | 7.0 | 0.00 | 0.63 | 0.29 | 66 | 1012.8 |
| 20260903200118 | 81 | 222 | 0.0 | 4.0 | 0.00 | 0.63 | 0.29 | 65 | 1013.0 |
| 20260903194602 | 81 | 0 | 1.0 | 6.0 | 0.00 | 0.63 | 0.29 | 67 | 1013.1 |
| 20260903193103 | 81 | 274 | 3.0 | 8.0 | 0.00 | 0.63 | 0.29 | 66 | 1013.1 |
| 20260903191606 | 81 | 311 | 4.0 | 9.0 | 0.00 | 0.63 | 0.29 | 66 | 1013.1 |
| 20260903190106 | 80 | 300 | 3.0 | 13.0 | 0.00 | 0.63 | 0.29 | 67 | 1013.4 |
| 20260903184605 | 79 | 302 | 4.0 | 9.0 | 0.00 | 0.64 | 0.29 | 67 | 1013.4 |
| 20260903183108 | 78 | 302 | 6.0 | 11.0 | 0.00 | 0.64 | 0.29 | 68 | 1013.7 |
| 20260903181604 | 78 | 331 | 4.0 | 13.0 | 0.00 | 0.64 | 0.29 | 67 | 1013.8 |
| 20260903180112 | 77 | 323 | 6.0 | 10.0 | 0.00 | 0.64 | 0.29 | 67 | 1013.9 |
| 20260903174606 | 77 | 314 | 4.0 | 13.0 | 0.00 | 0.79 | 0.29 | 67 | 1013.8 |
| 20260903173107 | 76 | 308 | 1.0 | 14.0 | 0.00 | 0.79 | 0.29 | 66 | 1013.9 |
| 20260903171613 | 75 | 287 | 3.0 | 7.0 | 0.00 | 0.79 | 0.29 | 65 | 1014.0 |
| 20260903170109 | 75 | 277 | 1.0 | 8.0 | 0.00 | 0.79 | 0.29 | 65 | 1014.2 |
| 20260903164605 | 75 | 277 | 5.0 | 11.0 | 0.00 | 0.79 | 0.29 | 65 | 1014.2 |
| 20260903163107 | 75 | 306 | 9.0 | 19.0 | 0.00 | 0.79 | 0.29 | 65 | 1014.5 |